TimeEEST,TemperatureF,Dew PointF,Humidity,Sea Level PressureIn,VisibilityMPH,Wind Direction,Wind SpeedMPH,Gust SpeedMPH,PrecipitationIn,Events,Conditions,WindDirDegrees,DateUTC
12:20 AM,75.2,64.4,69,29.89,-9999.0,West,16.1,-,N/A,,Clear,280,2013-06-28 21:20:00
12:50 AM,75.2,64.4,69,29.86,-9999.0,WNW,17.3,-,N/A,,Clear,290,2013-06-28 21:50:00
1:20 AM,75.2,60.8,61,29.86,-9999.0,WNW,15.0,-,N/A,,Clear,300,2013-06-28 22:20:00
1:50 AM,75.2,62.6,65,29.86,-9999.0,WNW,13.8,-,N/A,,Clear,290,2013-06-28 22:50:00
2:20 AM,75.2,66.2,73,29.86,-9999.0,WNW,11.5,-,N/A,,Clear,300,2013-06-28 23:20:00
2:50 AM,75.2,68.0,78,29.86,6.2,WNW,13.8,-,N/A,,Partly Cloudy,290,2013-06-28 23:50:00
3:20 AM,73.4,68.0,83,29.86,6.2,West,16.1,-,N/A,,Partly Cloudy,270,2013-06-29 00:20:00
3:50 AM,73.4,68.0,83,29.86,-9999.0,WNW,11.5,-,N/A,,Clear,300,2013-06-29 00:50:00
4:20 AM,73.4,64.4,73,29.86,6.2,NW,13.8,-,N/A,,Partly Cloudy,310,2013-06-29 01:20:00
4:50 AM,75.2,62.6,65,29.86,6.2,NW,18.4,-,N/A,,Partly Cloudy,320,2013-06-29 01:50:00
5:20 AM,75.2,62.6,65,29.86,6.2,NW,15.0,-,N/A,,Partly Cloudy,320,2013-06-29 02:20:00
5:50 AM,75.2,62.6,65,29.86,-9999.0,NW,16.1,-,N/A,,Clear,310,2013-06-29 02:50:00
6:20 AM,75.2,62.6,65,29.86,6.2,NW,11.5,-,N/A,,Partly Cloudy,320,2013-06-29 03:20:00
6:50 AM,75.2,62.6,65,29.86,6.2,NNW,11.5,-,N/A,,Partly Cloudy,340,2013-06-29 03:50:00
7:20 AM,77.0,62.6,61,29.86,6.2,WNW,11.5,-,N/A,,Partly Cloudy,300,2013-06-29 04:20:00
7:50 AM,77.0,62.6,61,29.86,6.2,NNW,11.5,-,N/A,,Partly Cloudy,330,2013-06-29 04:50:00
8:20 AM,78.8,60.8,54,29.86,6.2,NW,13.8,-,N/A,,Partly Cloudy,310,2013-06-29 05:20:00
8:50 AM,78.8,62.6,57,29.86,-9999.0,NW,13.8,-,N/A,,Clear,320,2013-06-29 05:50:00
9:20 AM,80.6,60.8,51,29.86,-9999.0,NW,12.7,-,N/A,,Clear,310,2013-06-29 06:20:00
9:50 AM,82.4,60.8,48,29.86,-9999.0,NW,11.5,-,N/A,,Clear,320,2013-06-29 06:50:00
10:20 AM,82.4,60.8,48,29.86,-9999.0,North,15.0,-,N/A,,Clear,350,2013-06-29 07:20:00
10:50 AM,82.4,60.8,48,29.86,-9999.0,NW,12.7,26.5,N/A,,Clear,320,2013-06-29 07:50:00
11:20 AM,82.4,60.8,48,29.86,-9999.0,West,15.0,-,N/A,,Clear,280,2013-06-29 08:20:00
11:50 AM,84.2,60.8,45,29.86,-9999.0,West,16.1,-,N/A,,Clear,270,2013-06-29 08:50:00
12:20 PM,84.2,60.8,45,29.86,-9999.0,West,17.3,-,N/A,,Clear,280,2013-06-29 09:20:00
12:50 PM,84.2,60.8,45,29.86,-9999.0,West,16.1,-,N/A,,Clear,280,2013-06-29 09:50:00
1:20 PM,86.0,60.8,43,29.83,-9999.0,West,13.8,-,N/A,,Clear,260,2013-06-29 10:20:00
1:50 PM,84.2,62.6,48,29.83,-9999.0,WSW,13.8,-,N/A,,Clear,250,2013-06-29 10:50:00
2:20 PM,84.2,62.6,48,29.83,-9999.0,West,15.0,-,N/A,,Clear,260,2013-06-29 11:20:00
2:50 PM,84.2,64.4,51,29.83,-9999.0,West,13.8,-,N/A,,Clear,270,2013-06-29 11:50:00
3:20 PM,84.2,62.6,48,29.83,-9999.0,West,13.8,-,N/A,,Clear,260,2013-06-29 12:20:00
3:50 PM,84.2,62.6,48,29.83,-9999.0,West,13.8,-,N/A,,Clear,260,2013-06-29 12:50:00
4:20 PM,84.2,62.6,48,29.80,-9999.0,WSW,13.8,-,N/A,,Clear,250,2013-06-29 13:20:00
4:50 PM,82.4,62.6,51,29.80,-9999.0,West,17.3,-,N/A,,Clear,260,2013-06-29 13:50:00
5:20 PM,80.6,64.4,58,29.80,-9999.0,WSW,18.4,-,N/A,,Clear,250,2013-06-29 14:20:00
5:50 PM,80.6,66.2,61,29.80,-9999.0,West,16.1,-,N/A,,Clear,260,2013-06-29 14:50:00
6:20 PM,78.8,66.2,65,29.80,-9999.0,West,13.8,-,N/A,,Clear,270,2013-06-29 15:20:00
6:50 PM,78.8,64.4,61,29.80,-9999.0,West,11.5,-,N/A,,Clear,280,2013-06-29 15:50:00
7:20 PM,78.8,55.4,44,29.80,-9999.0,West,16.1,-,N/A,,Clear,260,2013-06-29 16:20:00
7:50 PM,77.0,62.6,61,29.80,-9999.0,West,16.1,-,N/A,,Clear,260,2013-06-29 16:50:00
8:20 PM,75.2,64.4,69,29.80,-9999.0,West,17.3,-,N/A,,Clear,260,2013-06-29 17:20:00
8:50 PM,75.2,64.4,69,29.77,6.2,West,16.1,-,N/A,,Partly Cloudy,260,2013-06-29 17:50:00
9:20 PM,75.2,62.6,65,29.77,6.2,West,16.1,-,N/A,,Partly Cloudy,260,2013-06-29 18:20:00
9:50 PM,75.2,62.6,65,29.77,6.2,WSW,20.7,-,N/A,,Partly Cloudy,250,2013-06-29 18:50:00
10:20 PM,75.2,62.6,65,29.77,6.2,WSW,17.3,28.8,N/A,,Partly Cloudy,250,2013-06-29 19:20:00
10:50 PM,75.2,62.6,65,29.77,6.2,WSW,20.7,-,N/A,,Partly Cloudy,250,2013-06-29 19:50:00
11:20 PM,75.2,62.6,65,29.77,6.2,WSW,18.4,-,N/A,,Partly Cloudy,250,2013-06-29 20:20:00
11:50 PM,75.2,60.8,61,29.77,6.2,West,18.4,-,N/A,,Partly Cloudy,260,2013-06-29 20:50:00